Location: Kaiser
(34.0939°N, 117.4889°W)
Time: 21:12:38
(UTC+00:00)

Cosmos 2228 - Pass Details

Date: 29 October 2020
Orbit: 590 x 617 km, 82.5° (Epoch: 26 November)

Event Time Altitude Azimuth Distance (km) Brightness Sun altitude
Rises 12:58:24 0° 342° (NNW) 2,881 6.2 -14.8°
Reaches altitude 10° 13:00:46 10° 333° (NNW) 1,975 5.3 -14.4°
Maximum altitude 13:04:41 33° 269° (W) 1,045 3.7 -13.6°
Drops below altitude 10° 13:08:35 10° 206° (SSW) 1,971 5.5 -12.8°
Sets 13:10:58 0° 196° (SSW) 2,873 6.4 -12.3°
